(244868) = 2003 UL222

Discovered at Socorro on 2003-10-22 by LINEAR.

Orbit

Orbit type: Main Belt

Note: WebGL enabled browser required.

epoch2024-03-31.0
epoch JD2460400.5
perihelion date2022-03-08.79763
perihelion JD2459647.29763
argument of perihelion (°)149.81403
ascending node (°)244.85907
inclination (°)12.76236
eccentricity0.1670646
perihelion distance (AU)2.3115335
Tisserand w.r.t. Jupiter3.3
ΔV w.r.t. Earth (km/sec)10.3
semimajor axis (AU)2.7751655
mean anomaly (°)160.57657
mean daily motion (°/day)0.21319180
aphelion distance (AU)3.239
period (years)4.62
P-vector [x]0.81116593
P-vector [y]0.48260877
P-vector [z]0.33030079
Q-vector [x]-0.54956139
Q-vector [y]0.82217994
Q-vector [z]0.14833215
absolute magnitude15.74
phase slope0.15
uncertainty0
referenceMPEC 2024-F28
observations used646
oppositions16
arc length (days)8807
first opposition used2000
last opposition used2024
residual rms (arc-secs)0.64
perturbers coarse indicatorM-v
perturbers precise indicator003Ek
first observation date used2000-02-06.0
last observation date used2024-03-18.0
computer nameMPCLINUX
JD of orbit computation2456789.265054
perihelion JD uncertainty (days)1.0640E-04
argument of perihelion uncertainty (°)3.6057E-05
ascending node uncertainty (°)2.5520E-05
inclination uncertainty (°)5.0484E-06
eccentricity uncertainty 8.5317E-08
perihelion distance uncertainty (AU)2.4595E-07
Minimum Orbit Intersection Distances (in AU)
for orbit epoch: 2460400.5, reference: E2024-GD4
Mercury1.99075
Venus1.59812
Earth1.32889
Mars0.84608
Jupiter2.19386
Saturn6.48173
Uranus15.3954
Neptune27.436

Observations

653 total observations over interval: 2000 02 06.32698 – 2024 03 18.498681
These data are available for download (format description).

Date (UT) J2000 RA J2000 Dec Magn Location Ref
2000 02 06.32698 08 33 18.46 +00 00 17.0 19.7   704 – Lincoln Laboratory ETS, New Mexico MPS 149510
2000 02 06.34178 08 33 17.64 +00 00 20.0 19.0   704 – Lincoln Laboratory ETS, New Mexico MPS 149510
2000 02 06.37126 08 33 15.99 +00 00 26.3 19.2   704 – Lincoln Laboratory ETS, New Mexico MPS 149510
2000 02 08.318120 08 31 34.653 +00 06 38.29 19.77 V 645 – Apache Point-Sloan Digital Sky Survey MPS 149510
2000 02 08.321592 08 31 34.467 +00 06 38.95 20.64   645 – Apache Point-Sloan Digital Sky Survey MPS 149510
2003 10 22.31050 03 44 06.43 +26 38 39.0 19.2   704 – Lincoln Laboratory ETS, New Mexico MPS 89861
2003 10 22.32215 03 44 06.05 +26 38 34.3 19.7   704 – Lincoln Laboratory ETS, New Mexico MPS 89861
2003 10 22.33361 03 44 05.68 +26 38 31.3 19.9   704 – Lincoln Laboratory ETS, New Mexico MPS 89861
2003 10 22.34566 03 44 05.17 +26 38 27.1 20.0   704 – Lincoln Laboratory ETS, New Mexico MPS 89861
2003 10 22.35719 03 44 04.83 +26 38 22.6 20.1   704 – Lincoln Laboratory ETS, New Mexico MPS 89861
2003 10 25.32166 03 42 23.70 +26 18 53.0 18.9   704 – Lincoln Laboratory ETS, New Mexico MPS 89861
2003 10 25.33352 03 42 23.24 +26 18 48.4 19.0   704 – Lincoln Laboratory ETS, New Mexico MPS 89861
2003 10 25.34660 03 42 22.76 +26 18 43.8 18.9   704 – Lincoln Laboratory ETS, New Mexico MPS 89861
2003 10 25.35857 03 42 22.27 +26 18 38.6 19.3   704 – Lincoln Laboratory ETS, New Mexico MPS 89861
2003 10 25.37064 03 42 21.81 +26 18 33.5 19.6   704 – Lincoln Laboratory ETS, New Mexico MPS 89861
2003 10 29.28920 03 39 47.70 +25 50 06.8 19.2 R 699 – Lowell Observatory-LONEOS MPS 91927
2003 10 29.30836 03 39 46.88 +25 49 58.8   699 – Lowell Observatory-LONEOS MPS 91927
2003 10 29.32753 03 39 46.03 +25 49 49.0   699 – Lowell Observatory-LONEOS MPS 91927
2003 10 29.34671 03 39 45.12 +25 49 40.9   699 – Lowell Observatory-LONEOS MPS 91927
2003 11 02.31607 03 36 48.76 +25 17 55.0 18.3 C 704 – Lincoln Laboratory ETS, New Mexico MPS 291470
2003 11 02.32837 03 36 48.21 +25 17 47.9 18.8 C 704 – Lincoln Laboratory ETS, New Mexico MPS 291470
2003 11 02.34098 03 36 47.26 +25 17 40.4 17.9 C 704 – Lincoln Laboratory ETS, New Mexico MPS 291470
2003 11 02.35341 03 36 46.76 +25 17 39.0 16.6 C 704 – Lincoln Laboratory ETS, New Mexico MPS 291470
2003 11 02.36618 03 36 46.31 +25 17 29.6 19.1 C 704 – Lincoln Laboratory ETS, New Mexico MPS 291470
2003 11 05.24931 03 34 28.44 +24 52 40.9 19.3 R 699 – Lowell Observatory-LONEOS MPS 93748
2003 11 05.27020 03 34 27.39 +24 52 30.4   699 – Lowell Observatory-LONEOS MPS 93748
2003 11 05.29113 03 34 26.36 +24 52 18.9   699 – Lowell Observatory-LONEOS MPS 93748
2003 11 05.31197 03 34 25.24 +24 52 07.7   699 – Lowell Observatory-LONEOS MPS 93748
2003 11 14.42103 03 26 35.59 +23 26 03.0 18.8   644 – Palomar Mountain/NEAT MPS 91927
2003 11 14.44380 03 26 34.36 +23 25 49.2 18.5   644 – Palomar Mountain/NEAT MPS 91927
2003 11 14.46480 03 26 33.22 +23 25 36.5 18.5   644 – Palomar Mountain/NEAT MPS 91927
2003 11 20.27067 03 21 29.87 +22 26 39.7 19.1   704 – Lincoln Laboratory ETS, New Mexico MPS 91927
2003 11 20.28312 03 21 29.24 +22 26 32.4 19.3   704 – Lincoln Laboratory ETS, New Mexico MPS 91927
2003 11 20.29558 03 21 28.60 +22 26 24.7 20.0   704 – Lincoln Laboratory ETS, New Mexico MPS 91927
2003 11 20.30807 03 21 27.84 +22 26 16.7 19.7   704 – Lincoln Laboratory ETS, New Mexico MPS 91927
2003 11 20.32091 03 21 27.16 +22 26 08.5 19.2   704 – Lincoln Laboratory ETS, New Mexico MPS 91927
2003 11 24.15362 03 18 14.96 +21 46 32.1 18.6 R 699 – Lowell Observatory-LONEOS MPS 91927
2003 11 24.17114 03 18 14.01 +21 46 21.7   699 – Lowell Observatory-LONEOS MPS 91927
2003 11 24.18865 03 18 13.14 +21 46 11.8   699 – Lowell Observatory-LONEOS MPS 91927
2003 11 24.19857 03 18 12.54 +21 46 06.6 19.0   704 – Lincoln Laboratory ETS, New Mexico MPS 91927
2003 11 24.20627 03 18 12.27 +21 46 00.8   699 – Lowell Observatory-LONEOS MPS 91927
2003 11 24.21095 03 18 11.86 +21 45 58.7 19.3   704 – Lincoln Laboratory ETS, New Mexico MPS 91927
2003 11 24.22337 03 18 11.22 +21 45 51.2 19.7   704 – Lincoln Laboratory ETS, New Mexico MPS 91927
2003 11 24.23586 03 18 10.61 +21 45 43.4 19.7   704 – Lincoln Laboratory ETS, New Mexico MPS 91927
2003 11 24.24823 03 18 10.02 +21 45 36.1 19.7   704 – Lincoln Laboratory ETS, New Mexico MPS 91927
2003 11 24.25110 03 18 09.93 +21 45 33.8 17.8 V 703 – Catalina Sky Survey MPS 91927
2003 11 24.26462 03 18 09.22 +21 45 24.4 18.9 V 703 – Catalina Sky Survey MPS 91927
2003 11 24.27825 03 18 08.60 +21 45 16.8 18.5 V 703 – Catalina Sky Survey MPS 91927
2003 11 24.29184 03 18 07.83 +21 45 07.6 19.0 V 703 – Catalina Sky Survey MPS 91927
2003 12 01.25664 03 12 51.59 +20 34 05.6 19.6   704 – Lincoln Laboratory ETS, New Mexico MPS 92796
2003 12 01.26932 03 12 50.93 +20 33 58.4 20.0   704 – Lincoln Laboratory ETS, New Mexico MPS 92796
2003 12 01.28184 03 12 50.43 +20 33 51.0 19.5   704 – Lincoln Laboratory ETS, New Mexico MPS 92796
2003 12 19.20232 03 04 29.14 +17 55 21.1 19.2   704 – Lincoln Laboratory ETS, New Mexico MPS 93748
2003 12 19.21513 03 04 28.95 +17 55 15.0 20.0   704 – Lincoln Laboratory ETS, New Mexico MPS 93748
2003 12 19.22802 03 04 28.69 +17 55 09.5 19.8   704 – Lincoln Laboratory ETS, New Mexico MPS 93748
2003 12 21.20414 03 04 06.74 +17 40 57.3 19.7   704 – Lincoln Laboratory ETS, New Mexico MPS 94734
2003 12 21.21736 03 04 06.56 +17 40 51.3 20.1   704 – Lincoln Laboratory ETS, New Mexico MPS 94734
2003 12 21.23080 03 04 06.43 +17 40 46.2 19.6   704 – Lincoln Laboratory ETS, New Mexico MPS 94734
2003 12 21.25735 03 04 06.09 +17 40 35.0 19.8   704 – Lincoln Laboratory ETS, New Mexico MPS 94734
2003 12 22.07982 03 03 59.47 +17 34 53.4 20.1 V 691 – Steward Observatory, Kitt Peak-Spacewatch MPS 94734
2003 12 22.10851 03 03 59.16 +17 34 41.8 20.6 V 691 – Steward Observatory, Kitt Peak-Spacewatch MPS 94734
2003 12 22.13705 03 03 58.94 +17 34 30.1 20.6 V 691 – Steward Observatory, Kitt Peak-Spacewatch MPS 94734
2004 01 12.09581 03 07 45.58 +15 55 08.8 19.9   644 – Palomar Mountain/NEAT MPS 96635
2004 01 12.11720 03 07 46.13 +15 55 05.0 19.5   644 – Palomar Mountain/NEAT MPS 96635
2004 01 12.13892 03 07 46.71 +15 55 01.2 19.6   644 – Palomar Mountain/NEAT MPS 96635
2004 02 10.10480 03 31 02.25 +15 35 58.7 20.6   644 – Palomar Mountain/NEAT MPS 98804
2004 02 10.12694 03 31 03.67 +15 36 00.5 20.3   644 – Palomar Mountain/NEAT MPS 98804
2004 02 10.14775 03 31 04.99 +15 36 02.0 20.2   644 – Palomar Mountain/NEAT MPS 98804
2004 03 15.11334 04 15 56.09 +16 34 49.9 21.5 V 691 – Steward Observatory, Kitt Peak-Spacewatch MPS 101204
2004 03 15.12894 04 15 57.49 +16 34 51.4 22.2 V 691 – Steward Observatory, Kitt Peak-Spacewatch MPS 101204
2004 03 15.14272 04 15 58.68 +16 34 53.2 21.5 V 691 – Steward Observatory, Kitt Peak-Spacewatch MPS 101204
2006 05 31.28987 15 15 36.68 -20 38 55.9 20.3 V G96 – Mt. Lemmon Survey MPS 172840
2006 05 31.29488 15 15 36.46 -20 38 54.2 20.2 V G96 – Mt. Lemmon Survey MPS 172840
2006 05 31.29999 15 15 36.25 -20 38 51.9 20.0 V G96 – Mt. Lemmon Survey MPS 172840
2006 05 31.30508 15 15 35.96 -20 38 50.6 20.3 V G96 – Mt. Lemmon Survey MPS 172840
2007 09 12.17520 20 49 43.86 +02 37 11.7 19.5 V 703 – Catalina Sky Survey MPS 215102
2007 09 12.18111 20 49 43.68 +02 37 09.8 19.4 V 703 – Catalina Sky Survey MPS 215102
2007 09 12.18706 20 49 43.35 +02 37 07.5 19.0 V 703 – Catalina Sky Survey MPS 215102
2007 09 12.19296 20 49 43.24 +02 37 04.2 19.1 V 703 – Catalina Sky Survey MPS 215102
2007 10 13.15110 20 50 17.52 -00 12 59.8 20.6 V 703 – Catalina Sky Survey MPS 220439
2007 10 13.15870 20 50 17.62 -00 13 01.3 20.0 V 703 – Catalina Sky Survey MPS 220439
2007 10 13.16628 20 50 17.88 -00 13 04.5 20.2 V 703 – Catalina Sky Survey MPS 220439
2007 10 13.17385 20 50 18.02 -00 13 05.8 20.0 V 703 – Catalina Sky Survey MPS 220439
2009 01 18.26787 06 44 43.49 +09 07 38.1 19.4   704 – Lincoln Laboratory ETS, New Mexico MPS 272417
2009 01 18.28050 06 44 42.81 +09 07 37.2 19.4   704 – Lincoln Laboratory ETS, New Mexico MPS 272417
2009 01 18.29312 06 44 42.20 +09 07 36.9 19.5   704 – Lincoln Laboratory ETS, New Mexico MPS 272417
2009 01 18.30572 06 44 41.54 +09 07 36.0 19.4   704 – Lincoln Laboratory ETS, New Mexico MPS 272417
